DW1824 Weather Reports


Display with metric or nautical units.
time (UTC)temp
F
wind
direction
speed
MPH
gust
MPH
rain 1hr
in
rain 24hr
in
rain mn
in
humidity
%
barometer
mb
20181019112307 63 4 1.0 5.0 0.00 0.01 0.00 89 1021.3
20181019111812 63 65 1.0 5.0 0.00 0.01 0.00 89 1021.3
20181019111305 63 48 0.0 5.0 0.00 0.01 0.00 89 1021.3
20181019110811 63 48 2.0 5.0 0.00 0.01 0.00 89 1021.2
20181019110304 63 34 2.0 4.0 0.00 0.01 0.00 89 1021.3
20181019105814 63 34 2.0 4.0 0.00 0.01 0.00 89 1021.3
20181019105309 63 66 2.0 4.0 0.00 0.01 0.00 89 1021.3
20181019104814 63 35 2.0 4.0 0.00 0.01 0.00 89 1021.3
20181019104308 63 39 3.0 6.0 0.00 0.01 0.00 89 1021.4
20181019103813 63 31 2.0 6.0 0.00 0.01 0.00 89 1021.4
20181019103306 63 60 3.0 5.0 0.00 0.01 0.00 89 1021.3
20181019102816 63 23 2.0 6.0 0.00 0.01 0.00 89 1021.2
20181019102307 63 41 2.0 6.0 0.00 0.01 0.00 89 1021.1
20181019101812 63 26 2.0 8.0 0.00 0.01 0.00 89 1021.1
20181019101308 63 87 3.0 8.0 0.00 0.01 0.00 89 1021.2
20181019100814 63 55 2.0 5.0 0.00 0.01 0.00 89 1021.2
20181019100307 63 47 2.0 5.0 0.00 0.01 0.00 89 1021.2
20181019095817 63 22 2.0 5.0 0.00 0.01 0.00 89 1021.3
20181019095308 63 32 2.0 4.0 0.00 0.01 0.00 89 1021.3
20181019094814 63 10 2.0 6.0 0.00 0.01 0.00 89 1021.2
20181019094306 63 31 2.0 6.0 0.00 0.01 0.00 89 1021.3
20181019093814 63 27 2.0 6.0 0.00 0.01 0.00 89 1021.3
20181019093306 63 39 2.0 5.0 0.00 0.01 0.00 89 1021.3
20181019092819 63 43 2.0 5.0 0.00 0.01 0.00 89 1021.3
20181019092309 63 25 2.0 5.0 0.00 0.01 0.00 89 1021.3
20181019091816 63 23 2.0 5.0 0.00 0.01 0.00 88 1021.3
20181019091309 63 18 3.0 6.0 0.00 0.01 0.00 88 1021.3
20181019090815 63 22 2.0 6.0 0.00 0.01 0.00 88 1021.3
20181019090307 64 16 2.0 6.0 0.00 0.01 0.00 88 1021.3
20181019085817 64 64 1.0 6.0 0.00 0.01 0.00 88 1021.3
20181019085307 64 39 2.0 6.0 0.00 0.01 0.00 88 1021.4
20181019084813 64 41 2.0 6.0 0.00 0.01 0.00 88 1021.4
20181019084310 64 45 3.0 6.0 0.00 0.01 0.00 88 1021.4
20181019083816 64 43 3.0 5.0 0.00 0.01 0.00 88 1021.4
20181019083309 64 69 2.0 5.0 0.00 0.01 0.00 88 1021.6
20181019082817 64 31 1.0 5.0 0.00 0.01 0.00 88 1021.6
20181019082307 64 65 1.0 3.0 0.00 0.01 0.00 87 1021.7
20181019081836 64 35 2.0 9.0 0.00 0.01 0.00 87 1021.8
20181019081307 64 32 3.0 9.0 0.00 0.01 0.00 87 1021.8
20181019080813 64 41 2.0 5.0 0.00 0.01 0.00 87 1021.8
20181019080306 64 63 2.0 5.0 0.00 0.01 0.00 87 1021.7
20181019075819 64 41 1.0 4.0 0.00 0.01 0.00 87 1021.7
20181019075310 64 21 2.0 5.0 0.00 0.01 0.00 87 1021.9
20181019074816 65 28 2.0 7.0 0.00 0.01 0.00 87 1021.9
20181019074308 65 29 3.0 7.0 0.00 0.01 0.00 87 1022.0
20181019073814 65 31 2.0 8.0 0.00 0.01 0.00 87 1022.1
20181019073307 65 29 1.0 6.0 0.00 0.01 0.00 86 1022.2
20181019072816 65 60 1.0 8.0 0.00 0.01 0.00 87 1022.2
20181019072305 65 70 2.0 10.0 0.00 0.01 0.00 86 1022.1
20181019071813 65 57 3.0 10.0 0.00 0.01 0.00 86 1022.1
20181019071310 65 37 2.0 5.0 0.00 0.01 0.00 86 1022.1
20181019070816 65 50 2.0 9.0 0.00 0.01 0.00 86 1022.1
20181019070309 65 83 2.0 6.0 0.00 0.01 0.00 86 1022.0
20181019065819 65 41 2.0 6.0 0.00 0.01 0.00 86 1022.1
20181019065309 65 37 2.0 5.0 0.00 0.01 0.00 86 1022.2
20181019064815 65 50 2.0 6.0 0.00 0.01 0.00 86 1022.2
20181019064308 66 36 2.0 8.0 0.00 0.01 0.00 86 1022.2
20181019063814 66 38 2.0 10.0 0.00 0.01 0.00 86 1022.3
20181019063311 66 17 3.0 10.0 0.00 0.01 0.00 86 1022.3
20181019062821 66 43 2.0 6.0 0.00 0.01 0.00 87 1022.3
20181019062311 66 79 2.0 6.0 0.00 0.01 0.00 87 1022.3
20181019061817 66 52 1.0 6.0 0.00 0.01 0.00 87 1022.3
20181019061310 66 354 2.0 6.0 0.00 0.01 0.00 87 1022.3
20181019060815 66 36 2.0 7.0 0.00 0.01 0.00 87 1022.4
20181019060308 66 25 2.0 6.0 0.00 0.01 0.00 87 1022.4
20181019055817 66 26 2.0 10.0 0.00 0.01 0.00 87 1022.5
20181019055307 66 32 2.0 10.0 0.00 0.01 0.00 87 1022.6
20181019054818 66 13 4.0 10.0 0.00 0.01 0.00 88 1022.5
20181019054310 66 48 1.0 6.0 0.00 0.01 0.00 88 1022.5
20181019053816 66 29 2.0 9.0 0.00 0.01 0.00 88 1022.6
20181019053309 66 76 3.0 9.0 0.00 0.01 0.00 88 1022.7
20181019052819 66 57 2.0 9.0 0.00 0.01 0.00 88 1022.8
20181019052309 66 43 1.0 8.0 0.00 0.01 0.00 88 1022.8
20181019051814 66 30 3.0 8.0 0.00 0.01 0.00 88 1022.8
20181019051307 66 16 2.0 8.0 0.00 0.01 0.00 88 1022.8
20181019050814 66 81 3.0 8.0 0.00 0.01 0.00 88 1022.8
20181019050311 67 31 2.0 7.0 0.00 0.01 0.00 88 1022.8
20181019045820 67 77 2.0 6.0 0.00 0.01 0.01 88 1022.9
20181019045311 67 87 1.0 6.0 0.00 0.01 0.01 88 1022.9
20181019044818 67 8 3.0 9.0 0.00 0.01 0.01 88 1023.0
20181019044310 67 4 3.0 9.0 0.00 0.01 0.01 88 1023.0
20181019043816 67 32 2.0 10.0 0.00 0.01 0.01 88 1023.0
20181019043309 67 42 3.0 10.0 0.00 0.01 0.01 88 1023.0
20181019042818 67 29 3.0 7.0 0.00 0.01 0.01 88 1023.1
20181019042313 67 32 3.0 6.0 0.00 0.01 0.01 88 1023.2
20181019041820 67 48 3.0 10.0 0.00 0.01 0.01 88 1023.3
20181019041313 67 59 4.0 10.0 0.00 0.01 0.01 88 1023.3
20181019040819 67 14 3.0 9.0 0.00 0.01 0.01 88 1023.4
20181019040312 67 354 3.0 8.0 0.00 0.01 0.01 88 1023.5
20181019035821 67 23 2.0 8.0 0.00 0.05 0.01 88 1023.6
20181019035312 67 45 2.0 8.0 0.00 0.05 0.01 88 1023.7
20181019034817 67 68 3.0 8.0 0.00 0.05 0.01 88 1023.6
20181019034310 67 45 2.0 11.0 0.00 0.05 0.01 88 1023.7
20181019033820 67 57 3.0 9.0 0.00 0.05 0.01 88 1023.6
20181019033312 67 42 2.0 6.0 0.00 0.05 0.01 88 1023.7
20181019032823 67 31 2.0 10.0 0.00 0.05 0.01 88 1023.8
20181019032313 67 89 3.0 10.0 0.00 0.05 0.01 88 1023.7
20181019031819 67 32 2.0 7.0 0.00 0.05 0.01 88 1023.6
20181019031312 67 40 3.0 7.0 0.00 0.05 0.01 89 1023.7
20181019030818 67 43 3.0 7.0 0.00 0.05 0.01 89 1023.6
20181019030310 67 81 3.0 10.0 0.00 0.05 0.01 89 1023.5
20181019025820 67 12 3.0 10.0 0.00 0.05 0.01 89 1023.5
20181019025314 66 31 4.0 10.0 0.00 0.05 0.01 89 1023.4
20181019024820 67 63 3.0 6.0 0.00 0.05 0.01 89 1023.5
20181019024313 67 23 3.0 5.0 0.00 0.05 0.01 88 1023.6
20181019023820 67 23 2.0 8.0 0.00 0.05 0.01 88 1023.6
20181019023313 67 33 3.0 8.0 0.00 0.05 0.01 88 1023.7
20181019022822 67 36 3.0 10.0 0.00 0.05 0.01 88 1023.7
20181019022312 67 13 2.0 10.0 0.00 0.05 0.01 88 1023.7
20181019021819 67 21 4.0 10.0 0.00 0.05 0.01 88 1023.7
20181019021316 67 23 5.0 10.0 0.00 0.05 0.01 88 1023.8
20181019020803 67 14 3.0 9.0 0.00 0.05 0.01 88 1023.8
20181019020316 67 17 2.0 10.0 0.00 0.05 0.01 88 1023.8
20181019015805 67 31 3.0 8.0 0.00 0.05 0.01 88 1023.8
20181019015315 67 37 3.0 8.0 0.00 0.05 0.01 88 1023.8
20181019014821 67 24 3.0 8.0 0.00 0.05 0.01 87 1023.8
20181019014314 67 16 3.0 8.0 0.00 0.05 0.01 87 1023.8
20181019013820 67 31 3.0 8.0 0.00 0.05 0.01 87 1023.8
20181019013313 67 21 3.0 7.0 0.00 0.05 0.01 87 1023.8
20181019012807 67 25 2.0 5.0 0.00 0.05 0.01 87 1023.8
20181019012316 67 23 1.0 5.0 0.00 0.05 0.01 87 1023.8
20181019011818 67 23 3.0 6.0 0.00 0.05 0.01 86 1023.7
20181019011307 67 21 4.0 9.0 0.00 0.05 0.01 86 1023.7
20181019010807 67 18 2.0 9.0 0.00 0.05 0.01 85 1023.7
20181019010319 67 25 3.0 6.0 0.00 0.05 0.01 85 1023.7
20181019005823 67 33 2.0 6.0 0.00 0.05 0.01 85 1023.6
20181019005312 67 22 3.0 6.0 0.00 0.05 0.01 85 1023.5
20181019004817 67 30 2.0 8.0 0.00 0.05 0.01 85 1023.4
20181019004314 67 34 3.0 8.0 0.00 0.05 0.01 85 1023.4
20181019003821 67 23 4.0 7.0 0.00 0.05 0.01 85 1023.2
20181019003314 67 4 2.0 7.0 0.00 0.05 0.01 85 1023.3
20181019002823 67 43 3.0 11.0 0.00 0.05 0.01 85 1023.3
20181019002313 67 29 4.0 11.0 0.00 0.05 0.01 84 1023.1
20181019001819 67 24 4.0 11.0 0.00 0.05 0.01 85 1023.0
20181019001311 67 31 4.0 13.0 0.00 0.05 0.01 85 1022.9
20181019000817 67 14 3.0 13.0 0.00 0.05 0.01 84 1022.9
20181019000310 67 23 4.0 11.0 0.00 0.05 0.01 84 1022.9
20181018235822 67 38 3.0 12.0 0.00 0.05 0.01 84 1022.7
20181018235312 68 48 7.0 12.0 0.00 0.05 0.01 84 1022.7
20181018234818 68 33 4.0 12.0 0.00 0.05 0.01 84 1022.7
20181018234311 68 15 5.0 12.0 0.00 0.05 0.01 84 1022.8
20181018233818 68 33 5.0 10.0 0.00 0.05 0.01 84 1022.9
20181018233311 68 26 4.0 9.0 0.00 0.05 0.01 84 1022.9
20181018232821 68 79 5.0 9.0 0.00 0.05 0.01 84 1022.8
20181018232312 68 27 5.0 9.0 0.00 0.05 0.01 84 1022.9
20181018231817 68 8 3.0 9.0 0.00 0.05 0.01 84 1022.9
20181018231314 68 19 4.0 9.0 0.00 0.05 0.01 84 1022.9
20181018230819 68 331 2.0 8.0 0.00 0.05 0.01 84 1022.8
20181018230308 68 343 3.0 8.0 0.00 0.05 0.01 84 1022.8
20181018225814 68 19 5.0 8.0 0.00 0.05 0.01 83 1022.7
20181018225305 68 26 4.0 8.0 0.00 0.05 0.01 83 1022.8
20181018224810 68 29 3.0 6.0 0.00 0.05 0.01 83 1022.9
20181018224323 68 35 1.0 7.0 0.00 0.05 0.01 82 1023.0
20181018223808 68 119 2.0 9.0 0.00 0.05 0.01 83 1022.9
20181018223305 68 45 3.0 10.0 0.00 0.05 0.01 83 1022.8
20181018222814 68 14 4.0 10.0 0.00 0.05 0.01 82 1022.9
20181018222304 69 33 4.0 8.0 0.00 0.05 0.01 82 1022.9
20181018221811 69 27 4.0 8.0 0.00 0.05 0.01 82 1022.9
20181018221305 69 37 3.0 8.0 0.00 0.05 0.01 83 1022.9
20181018220810 69 35 3.0 6.0 0.00 0.05 0.01 83 1023.0
20181018220303 69 25 1.0 5.0 0.00 0.05 0.01 83 1023.0
20181018215812 69 21 2.0 5.0 0.00 0.05 0.01 82 1023.0
20181018215303 69 27 3.0 8.0 0.00 0.05 0.01 82 1023.1
20181018214812 69 42 3.0 8.0 0.00 0.05 0.01 82 1023.1
20181018214304 69 29 2.0 6.0 0.00 0.05 0.01 82 1023.1
20181018213811 69 30 2.0 6.0 0.00 0.05 0.01 82 1023.1
20181018213304 69 54 1.0 6.0 0.00 0.05 0.01 82 1023.0
20181018212814 69 40 1.0 5.0 0.00 0.05 0.01 82 1023.1
20181018212304 69 48 2.0 5.0 0.00 0.05 0.01 81 1023.1
20181018211810 69 28 2.0 6.0 0.00 0.05 0.01 81 1023.0
20181018211303 69 25 2.0 6.0 0.00 0.05 0.01 81 1023.0
20181018210809 69 50 1.0 11.0 0.00 0.05 0.01 82 1023.0
20181018210306 69 31 3.0 11.0 0.00 0.05 0.01 81 1023.1
20181018205930 69 15 4.0 9.0 0.00 0.05 0.01 81 1023.0
20181018205305 69 52 2.0 6.0 0.00 0.05 0.01 81 1023.0
20181018204811 69 28 2.0 10.0 0.00 0.05 0.01 81 1022.9
20181018204304 69 22 5.0 10.0 0.00 0.05 0.01 81 1022.6
20181018203811 69 26 3.0 9.0 0.00 0.05 0.01 80 1022.8
20181018203304 69 13 2.0 9.0 0.00 0.05 0.01 81 1022.7
20181018202812 69 30 3.0 12.0 0.00 0.05 0.01 80 1022.8
20181018202306 69 15 4.0 12.0 0.00 0.05 0.01 80 1022.7
20181018201813 69 4 5.0 11.0 0.00 0.05 0.01 80 1022.7
20181018201306 69 52 4.0 10.0 0.00 0.05 0.01 80 1022.8
20181018200811 69 54 4.0 10.0 0.00 0.05 0.01 81 1022.8
20181018200304 69 60 3.0 10.0 0.00 0.05 0.01 80 1022.9
20181018195812 69 42 3.0 10.0 0.00 0.05 0.01 80 1022.8
20181018195323 69 62 3.0 9.0 0.00 0.05 0.01 80 1022.9
20181018194809 69 60 2.0 9.0 0.00 0.05 0.01 79 1023.0
20181018194322 69 16 4.0 9.0 0.00 0.05 0.01 79 1023.1
20181018193811 69 50 3.0 13.0 0.00 0.05 0.01 78 1023.2
20181018193304 70 29 4.0 13.0 0.00 0.05 0.01 79 1023.2
20181018192813 70 35 3.0 9.0 0.00 0.05 0.01 79 1023.2
20181018192303 70 27 3.0 8.0 0.00 0.05 0.01 79 1023.3
20181018191809 69 10 2.0 11.0 0.00 0.05 0.01 80 1023.5
20181018191321 69 354 4.0 11.0 0.00 0.05 0.01 79 1023.6
20181018190807 69 41 3.0 9.0 0.00 0.05 0.01 80 1023.7
20181018190320 68 31 4.0 9.0 0.00 0.05 0.01 80 1023.8
20181018185809 68 71 2.0 10.0 0.00 0.05 0.01 81 1024.0
20181018185304 68 53 6.0 13.0 0.00 0.05 0.01 81 1024.1
20181018184809 67 60 4.0 13.0 0.00 0.05 0.01 81 1024.1
20181018184323 67 53 4.0 9.0 0.00 0.05 0.01 81 1024.3
20181018183809 67 74 4.0 9.0 0.00 0.05 0.01 81 1024.6
20181018183322 67 52 2.0 11.0 0.00 0.05 0.01 81 1024.7
20181018182809 67 23 3.0 10.0 0.00 0.05 0.01 81 1024.9
20181018182320 67 34 3.0 10.0 0.00 0.05 0.01 80 1025.1
20181018181807 67 46 4.0 12.0 0.00 0.05 0.01 80 1025.0
20181018181304 66 10 5.0 12.0 0.00 0.05 0.01 81 1025.0
20181018180810 66 26 4.0 12.0 0.00 0.05 0.01 82 1025.2
20181018180303 66 56 4.0 12.0 0.00 0.05 0.01 82 1025.3
20181018175812 66 129 3.0 9.0 0.00 0.05 0.01 82 1025.3
20181018175303 65 87 3.0 11.0 0.00 0.05 0.01 83 1025.4
20181018174809 65 34 5.0 14.0 0.00 0.05 0.01 83 1025.5
20181018174322 65 87 3.0 14.0 0.00 0.05 0.01 84 1025.6
20181018173808 64 55 3.0 11.0 0.00 0.05 0.01 84 1025.6
20181018173321 64 8 2.0 12.0 0.00 0.05 0.01 84 1025.7
20181018172814 64 56 5.0 12.0 0.00 0.05 0.01 84 1025.7
20181018172305 64 29 3.0 14.0 0.00 0.05 0.01 85 1025.8
20181018171810 64 53 3.0 14.0 0.00 0.05 0.01 85 1025.8
20181018171303 63 60 4.0 14.0 0.00 0.05 0.01 85 1025.8
20181018170809 63 54 5.0 14.0 0.00 0.05 0.01 86 1026.0
20181018170322 63 62 2.0 10.0 0.00 0.05 0.01 86 1026.1
20181018165810 63 16 2.0 14.0 0.00 0.05 0.01 86 1026.1
20181018165321 63 74 4.0 14.0 0.00 0.05 0.01 86 1026.1
20181018164806 63 18 5.0 12.0 0.00 0.05 0.01 86 1026.1
20181018164303 62 14 4.0 12.0 0.00 0.05 0.01 86 1026.1
20181018163809 62 77 4.0 12.0 0.00 0.05 0.01 86 1026.1
20181018163322 62 80 2.0 12.0 0.00 0.05 0.01 86 1026.1
20181018162811 62 66 5.0 14.0 0.00 0.05 0.01 86 1026.1
20181018162322 62 83 5.0 14.0 0.00 0.05 0.01 86 1026.2
20181018161808 62 69 2.0 14.0 0.00 0.05 0.01 86 1026.2
20181018161321 62 62 4.0 15.0 0.00 0.05 0.01 87 1026.3
20181018160806 62 31 5.0 15.0 0.00 0.05 0.01 87 1026.2
20181018160303 61 49 3.0 13.0 0.00 0.05 0.01 88 1026.3
20181018155812 61 57 3.0 13.0 0.00 0.05 0.01 88 1026.5
20181018155303 61 42 3.0 15.0 0.00 0.05 0.01 88 1026.6
20181018154809 61 35 6.0 15.0 0.00 0.05 0.01 88 1026.4
20181018154322 61 48 5.0 12.0 0.00 0.05 0.01 88 1026.4
20181018153807 61 48 5.0 12.0 0.00 0.05 0.01 89 1026.3
20181018153320 61 41 3.0 13.0 0.00 0.05 0.01 89 1026.4
20181018152809 60 37 6.0 14.0 0.00 0.05 0.01 89 1026.4
20181018152320 60 56 4.0 13.0 0.00 0.05 0.01 91 1026.4
20181018151810 60 38 4.0 13.0 0.00 0.05 0.01 91 1026.4
20181018151323 60 67 5.0 16.0 0.00 0.05 0.01 91 1026.4
20181018150807 59 4 4.0 12.0 0.00 0.05 0.01 91 1026.4
20181018150320 59 9 5.0 13.0 0.00 0.05 0.01 92 1026.4
20181018145808 59 41 3.0 12.0 0.00 0.05 0.01 92 1026.4
20181018145319 59 56 4.0 11.0 0.00 0.05 0.01 93 1026.3
20181018144806 59 18 4.0 9.0 0.00 0.05 0.01 93 1026.4
20181018144319 59 13 2.0 9.0 0.00 0.05 0.01 93 1026.3
20181018143805 58 36 2.0 9.0 0.00 0.05 0.01 93 1026.3
20181018143321 58 31 3.0 18.0 0.00 0.05 0.01 94 1026.2
20181018142810 58 11 6.0 18.0 0.00 0.05 0.01 95 1026.1
20181018142321 58 103 2.0 11.0 0.00 0.05 0.01 95 1026.2
20181018141807 58 35 4.0 11.0 0.00 0.05 0.01 95 1026.1
20181018141320 58 18 4.0 8.0 0.00 0.05 0.01 95 1026.0
20181018140806 58 25 4.0 6.0 0.00 0.05 0.01 95 1025.9
20181018140319 57 4 4.0 6.0 0.00 0.05 0.01 95 1025.8
20181018135808 57 18 2.0 6.0 0.00 0.05 0.01 95 1025.7
20181018135318 57 347 3.0 8.0 0.00 0.05 0.01 95 1025.8
20181018134809 57 354 3.0 8.0 0.00 0.05 0.01 95 1025.8
20181018134322 57 22 4.0 8.0 0.00 0.05 0.01 95 1025.7
20181018133809 57 27 3.0 8.0 0.00 0.05 0.01 95 1025.7
20181018133322 57 18 3.0 5.0 0.00 0.05 0.01 95 1025.8
20181018132810 57 22 2.0 5.0 0.00 0.05 0.01 95 1025.7
20181018132321 56 11 2.0 5.0 0.00 0.05 0.01 95 1025.7
20181018131806 56 21 3.0 5.0 0.00 0.05 0.01 95 1025.6
20181018131319 56 42 2.0 4.0 0.00 0.05 0.01 95 1025.6
20181018130810 56 346 3.0 5.0 0.00 0.05 0.01 95 1025.5
20181018130303 56 23 3.0 5.0 0.00 0.05 0.01 95 1025.4
20181018125812 56 8 2.0 5.0 0.00 0.06 0.01 95 1025.4
20181018125323 56 27 2.0 9.0 0.00 0.06 0.01 95 1025.4
20181018124808 56 35 4.0 9.0 0.00 0.06 0.01 95 1025.3
20181018124321 56 18 4.0 8.0 0.00 0.06 0.01 95 1025.1
20181018123808 56 21 4.0 8.0 0.00 0.06 0.01 94 1025.2
20181018123320 56 359 3.0 11.0 0.00 0.06 0.01 94 1025.0
20181018122808 56 354 4.0 11.0 0.01 0.06 0.01 95 1025.0
20181018122303 56 348 4.0 8.0 0.01 0.06 0.01 95 1025.0
20181018121809 56 12 3.0 8.0 0.01 0.06 0.01 95 1025.0
20181018121322 56 359 4.0 8.0 0.01 0.06 0.01 95 1025.0
20181018120807 56 27 4.0 8.0 0.01 0.06 0.01 94 1025.0
20181018120321 56 336 3.0 8.0 0.01 0.06 0.01 94 1025.1
20181018115810 56 332 3.0 6.0 0.01 0.06 0.01 94 1025.0
20181018115320 56 19 3.0 6.0 0.01 0.06 0.01 94 1025.0
20181018114806 56 4 4.0 6.0 0.01 0.06 0.01 94 1025.0
20181018114319 56 16 3.0 6.0 0.01 0.06 0.01 93 1025.1
20181018113809 57 20 4.0 7.0 0.01 0.06 0.01 93 1025.1
20181018113323 57 354 3.0 6.0 0.01 0.06 0.01 93 1025.1
20181018112812 56 17 3.0 8.0 0.00 0.05 0.00 93 1025.0